This is the latest recevied weather packets stored in our database for station/object EW2310. If no packets are shown the sender has not sent any weather packets the latest 10 day(s).
| Time | Temp. | Humidity | Pressure | Rain* | Wind** | Luminosity | Snow |
|---|---|---|---|---|---|---|---|
| 1777595442 | 13.89° C | 68% | 1017.5 hPa | 0 mm | - | 0 W/m² | - |
| 1777594845 | 14.44° C | 69% | 1017.5 hPa | 0 mm | - | 0 W/m² | - |
| 1777593942 | 14.44° C | 69% | 1017.5 hPa | 0 mm | - | 0 W/m² | - |
| 1777592442 | 15° C | 71% | 1017.7 hPa | 0 mm | - | 0 W/m² | - |
| 1777591542 | 15° C | 72% | 1017.7 hPa | 0 mm | - | 0 W/m² | - |
| 1777591242 | 15° C | 72% | 1017.7 hPa | 0 mm | - | 0 W/m² | - |
| 1777590942 | 15.56° C | 73% | 1017.7 hPa | 0 mm | - | 0 W/m² | - |
| 1777588842 | 16.11° C | 78% | 1017.7 hPa | 0 mm | - | 0 W/m² | - |
| 1777588542 | 16.11° C | 78% | 1017.6 hPa | 0 mm | - | 0 W/m² | - |
| 1777586745 | 16.11° C | 79% | 1017.6 hPa | 0 mm | - | 0 W/m² | - |
| 1777586442 | 16.11° C | 79% | 1017.5 hPa | 0 mm | - | 0 W/m² | - |
| 1777584342 | 16.11° C | 80% | 1017.2 hPa | 0 mm | - | 0 W/m² | - |
| 1777582242 | 15.56° C | 81% | 1017 hPa | 0 mm | - | 0 W/m² | - |
| 1777580742 | 16.11° C | 81% | 1016.9 hPa | 0 mm | - | 0 W/m² | - |
| 1777580442 | 16.11° C | 81% | 1016.9 hPa | 0 mm | - | 0 W/m² | - |
| 1777579242 | 16.11° C | 81% | 1016.7 hPa | 0 mm | - | 0 W/m² | - |
| 1777578642 | 16.11° C | 81% | 1016.5 hPa | 0 mm | - | 0 W/m² | - |
| 1777576545 | 16.67° C | 82% | 1016.4 hPa | 0 mm | - | 0 W/m² | - |
| 1777575642 | 16.67° C | 81% | 1016.3 hPa | 0 mm | - | 0 W/m² | - |
| 1777573242 | 17.22° C | 78% | 1016.1 hPa | 0 mm | - | 0 W/m² | - |
| 1777572942 | 17.22° C | 78% | 1016.1 hPa | 0 mm | - | 0 W/m² | - |
| 1777571742 | 17.78° C | 76% | 1015.7 hPa | 0 mm | - | 9 W/m² | - |
| 1777570242 | 18.33° C | 73% | 1015.5 hPa | 0 mm | - | 26 W/m² | - |
| 1777568442 | 18.89° C | 70% | 1015.4 hPa | 0 mm | - | 118 W/m² | - |
| 1777568142 | 18.89° C | 70% | 1015.3 hPa | 0 mm | - | 123 W/m² | - |
* Rain latest hour (hover to see other rain measurements)
** Current wind speed in m/s (hover to see current wind gust speed)